This is the latest recevied weather packets stored in our database for station/object SP1BMW-13. If no packets are shown the sender has not sent any weather packets the latest 10 day(s).
| Time | Temp. | Humidity | Pressure | Rain* | Wind** | Luminosity | Snow |
|---|---|---|---|---|---|---|---|
| 1788020615 | 23.33° C | 51% | 1009.7 hPa | 0 mm | 1.79 m/s, 268° | 65 W/m² | - |
| 1788020552 | 23.33° C | 52% | 1009.9 hPa | 0 mm | 0.89 m/s, 192° | 70 W/m² | - |
| 1788020498 | 23.33° C | 52% | 1009.7 hPa | 0 mm | 1.79 m/s, 151° | 73 W/m² | - |
| 1788020435 | 23.33° C | 52% | 1009.9 hPa | 0 mm | 0.89 m/s, 233° | 77 W/m² | - |
| 1788020372 | 23.33° C | 51% | 1009.8 hPa | 0 mm | 0.89 m/s, 302° | 81 W/m² | - |
| 1788020313 | 23.33° C | 51% | 1009.8 hPa | 0 mm | 1.79 m/s, 299° | 82 W/m² | - |
| 1788020252 | 23.33° C | 51% | 1010 hPa | 0 mm | 0.89 m/s, 280° | 82 W/m² | - |
| 1788020192 | 23.33° C | 51% | 1009.9 hPa | 0 mm | 0.89 m/s, 224° | 79 W/m² | - |
| 1788020133 | 23.33° C | 51% | 1009.9 hPa | 0 mm | 0.45 m/s, 328° | 77 W/m² | - |
| 1788020075 | 23.33° C | 51% | 1009.8 hPa | 0 mm | 1.79 m/s, 246° | 77 W/m² | - |
| 1788020012 | 23.33° C | 51% | 1009.6 hPa | 0 mm | 0.89 m/s, 275° | 78 W/m² | - |
| 1788019956 | 23.33° C | 50% | 1009.8 hPa | 0 mm | 2.24 m/s, 278° | 80 W/m² | - |
| 1788019892 | 23.33° C | 50% | 1010 hPa | 0 mm | 0.89 m/s, 7° | 84 W/m² | - |
| 1788019832 | 23.33° C | 50% | 1009.9 hPa | 0 mm | 0.89 m/s, 136° | 89 W/m² | - |
| 1788019775 | 23.33° C | 50% | 1009.9 hPa | 0 mm | 0.45 m/s, 78° | 91 W/m² | - |
| 1788019713 | 23.33° C | 49% | 1009.8 hPa | 0 mm | 2.68 m/s, 232° | 91 W/m² | - |
| 1788019652 | 23.33° C | 50% | 1009.9 hPa | 0 mm | 0.89 m/s, 187° | 89 W/m² | - |
| 1788019592 | 23.33° C | 50% | 1009.8 hPa | 0 mm | 0.45 m/s, 222° | 89 W/m² | - |
| 1788019532 | 23.33° C | 50% | 1010 hPa | 0 mm | 0.89 m/s, 291° | 89 W/m² | - |
| 1788019475 | 23.33° C | 50% | 1009.8 hPa | 0 mm | 0.45 m/s, 272° | 91 W/m² | - |
| 1788019412 | 23.89° C | 49% | 1009.7 hPa | 0 mm | 0.89 m/s, 251° | 95 W/m² | - |
| 1788019360 | 23.89° C | 49% | 1009.9 hPa | 0 mm | 0.45 m/s, 272° | 100 W/m² | - |
| 1788019293 | 23.89° C | 48% | 1009.8 hPa | 0 mm | 1.79 m/s, 270° | 110 W/m² | - |
| 1788019235 | 23.89° C | 48% | 1009.8 hPa | 0 mm | 1.79 m/s, 17° | 124 W/m² | - |
| 1788019172 | 23.89° C | 49% | 1009.9 hPa | 0 mm | 0.89 m/s, 177° | 136 W/m² | - |
* Rain latest hour (hover to see other rain measurements)
** Current wind speed in m/s (hover to see current wind gust speed)